This is the latest recevied weather packets stored in our database for station/object N1ICS-1. If no packets are shown the sender has not sent any weather packets the latest 10 day(s).
| Time | Temp. | Humidity | Pressure | Rain* | Wind** | Luminosity | Snow |
|---|---|---|---|---|---|---|---|
| 1777767003 | 7.78° C | 62% | 1018.4 hPa | 0 mm | - | 26 W/m² | - |
| 1777766702 | 8.33° C | 62% | 1018.5 hPa | 0 mm | - | 30 W/m² | - |
| 1777766402 | 8.33° C | 59% | 1018.5 hPa | 0 mm | - | 37 W/m² | - |
| 1777766102 | 8.89° C | 56% | 1018.5 hPa | 0 mm | - | 45 W/m² | - |
| 1777765802 | 8.89° C | 56% | 1018.5 hPa | 0 mm | - | 58 W/m² | - |
| 1777765502 | 8.89° C | 51% | 1018.7 hPa | 0 mm | - | 56 W/m² | - |
| 1777765202 | 8.89° C | 51% | 1018.5 hPa | 0 mm | - | 49 W/m² | - |
| 1777764901 | 9.44° C | 48% | 1018.5 hPa | 0 mm | - | 78 W/m² | - |
| 1777764602 | 9.44° C | 51% | 1018.7 hPa | 0 mm | - | 105 W/m² | - |
| 1777764301 | 9.44° C | 51% | 1018.5 hPa | 0 mm | - | 114 W/m² | - |
| 1777764002 | 9.44° C | 50% | 1018.5 hPa | 0 mm | - | 69 W/m² | - |
| 1777763702 | 9.44° C | 49% | 1018.5 hPa | 0 mm | - | 107 W/m² | - |
| 1777763403 | 10° C | 50% | 1018.6 hPa | 0 mm | - | 152 W/m² | - |
| 1777763102 | 10° C | 51% | 1018.8 hPa | 0 mm | - | 170 W/m² | - |
| 1777762802 | 9.44° C | 49% | 1018.6 hPa | 0 mm | - | 138 W/m² | - |
| 1777762502 | 9.44° C | 50% | 1018.7 hPa | 0 mm | - | 204 W/m² | - |
| 1777762202 | 10° C | 50% | 1018.7 hPa | 0 mm | - | 218 W/m² | - |
| 1777761902 | 9.44° C | 50% | 1018.8 hPa | 0 mm | - | 260 W/m² | - |
| 1777761601 | 8.89° C | 50% | 1018.9 hPa | 0 mm | - | 118 W/m² | - |
| 1777761302 | 8.89° C | 53% | 1018.7 hPa | 0 mm | - | 133 W/m² | - |
| 1777761002 | 10° C | 51% | 1018.8 hPa | 0 mm | - | 158 W/m² | - |
| 1777760701 | 10° C | 47% | 1018.7 hPa | 0 mm | - | 305 W/m² | - |
| 1777760402 | 10° C | 48% | 1018.8 hPa | 0 mm | - | 275 W/m² | - |
| 1777760102 | 10° C | 51% | 1018.7 hPa | 0 mm | - | 416 W/m² | - |
| 1777759802 | 8.89° C | 48% | 1018.9 hPa | 0 mm | - | 265 W/m² | - |
* Rain latest hour (hover to see other rain measurements)
** Current wind speed in m/s (hover to see current wind gust speed)